Location: USNO
(38.9242°N, 77.0663°W)
Time: 15:03:24
(UTC-04:00)

OTV 5 (USA 277) - Pass Details

Date: 14 October 2017
Orbit: 404 x 417 km, 43.0° (Epoch: 07 September)

Event Time Altitude Azimuth Distance (km) Brightness Sun altitude
Rises 21:10:14 0° 288° (WNW) 2,355 ? -31.6°
Reaches altitude 10° 21:12:24 10° 295° (WNW) 1,491 ? -32.0°
Enters shadow 21:12:30 11° 295° (WNW) 1,455 ? -32.0°
